This demonstration page uses our WeatherBlox Daily Observations layout. Learn more.

Left ArrowRight Arrow

39.08367, -84.50855

Hourly Observations for April 3, 2022

Temp ( °F °C ) Dew Point ( °F °C ) Humidity (%) Winds ( mph kmh ) Pressure ( in mb ) Visibility ( mi km ) Precip ( " mm )
12:53 am 00:53 Mostly Cloudy 45 7.2 33 0.6 63 63 WNW 17 28 29.96 1015 10 16 0.00 0.00
1:53 am 01:53 Mostly Cloudy 43 6.1 31 -0.6 63 63 WNW 10 17 29.98 1015 10 16 0.00 0.00
2:18 am 02:18 Cloudy 42 5.6 31 -0.6 65 65 NW 13 20 30.01 1016 10 16 0.00 0.00
2:38 am 02:38 Cloudy 41 5 31 -0.6 67 67 NW 9 15 30.02 1017 10 16 0.00 0.00
2:53 am 02:53 Cloudy 42 5.6 31 -0.6 65 65 WNW 12 19 30.00 1016 10 16 0.00 0.00
3:38 am 03:38 Cloudy 41 5 31 -0.6 67 67 NW 5 7 30.03 1017 10 16 0.00 0.00
3:53 am 03:53 Cloudy 41 5 31 -0.6 67 67 NW 8 13 30.01 1016 10 16 0.00 0.00
4:41 am 04:41 Cloudy 41 5 31 -0.6 67 67 WNW 10 17 30.04 1017 10 16 0.00 0.00
4:53 am 04:53 Cloudy 41 5 31 -0.6 67 67 NW 10 17 30.03 1017 10 16 0.00 0.00
5:53 am 05:53 Cloudy 40 4.4 30 -1.1 68 68 VRB 7 11 30.04 1017 10 16 0.00 0.00
6:51 am 06:51 Cloudy 39 4 30 -1 70 70 NW 3 6 30.09 1019 10 16 0.00 0.00
6:53 am 06:53 Cloudy 40 4.4 31 -0.6 70 70 Calm 30.07 1018 10 16 0.00 0.00
7:53 am 07:53 Cloudy 40 4.4 31 -0.6 70 70 WNW 8 13 30.09 1019 10 16 0.00 0.00
8:53 am 08:53 Cloudy 41 5 32 0 70 70 undefined N/A 30.10 1019 10 16 0.00 0.00
9:53 am 09:53 Cloudy 43 6.1 32 0 65 65 NW 9 15 30.11 1020 10 16 0.00 0.00
10:53 am 10:53 Mostly Sunny 45 7.2 32 0 61 61 N 8 13 30.11 1020 10 16 0.00 0.00
11:53 am 11:53 Partly Cloudy 46 7.8 33 0.6 61 61 W 7 11 30.11 1020 10 16 0.00 0.00
12:53 pm 12:53 Mostly Cloudy 51 10.6 35 1.7 54 54 W 8 13 30.11 1020 10 16 0.00 0.00
1:53 pm 13:53 Partly Cloudy 52 11.1 33 0.6 49 49 VRB 6 9 30.11 1020 10 16 0.00 0.00
2:53 pm 14:53 Partly Cloudy 53 11.7 33 0.6 47 47 VRB 3 6 30.08 1019 10 16 0.00 0.00
3:53 pm 15:53 Partly Cloudy 54 12.2 32 0 43 43 N 6 9 30.06 1018 10 16 0.00 0.00
4:53 pm 16:53 Partly Cloudy 55 12.8 33 0.6 44 44 VRB 5 7 30.04 1017 10 16 0.00 0.00
5:53 pm 17:53 Partly Cloudy 55 12.8 32 0 42 42 N 5 7 30.03 1017 10 16 0.00 0.00
6:53 pm 18:53 Mostly Cloudy 54 12.2 32 0 43 43 E 3 6 30.03 1017 10 16 0.00 0.00
7:53 pm 19:53 Sunny 51 10.6 32 0 48 48 ENE 6 9 30.04 1017 10 16 0.00 0.00
8:53 pm 20:53 Clear 46 7.8 35 1.7 66 66 Calm 30.06 1018 10 16 0.00 0.00
9:53 pm 21:53 Clear 42 5.6 35 1.7 76 76 Calm 30.06 1018 10 16 0.00 0.00
10:53 pm 22:53 Clear 40 4.4 36 2.2 86 86 Calm 30.06 1018 10 16 0.00 0.00
11:53 pm 23:53 Clear 39 3.9 35 1.7 86 86 Calm 30.05 1018 10 16 0.00 0.00

Powered by AerisWeather